Location: Newark
(32.9900°N, 111.5400°W)
Time: 20:55:07
(UTC+00:00)

Envisat - Pass Details

Date: 16 November 2019
Orbit: 764 x 766 km, 98.1° (Epoch: 15 December)

Event Time Altitude Azimuth Distance (km) Brightness Sun altitude
Rises 00:42:26 0° 138° (SE) 3,220 6.0 -4.3°
Reaches altitude 10° 00:45:01 10° 127° (SE) 2,297 5.2 -4.8°
Maximum altitude 00:49:15 28° 70° (ENE) 1,424 3.9 -5.7°
Drops below altitude 10° 00:53:30 10° 13° (NNE) 2,307 5.2 -6.5°
Sets 00:56:05 0° 2° (N) 3,237 6.0 -7.1°
